When you browse on this site, cookies collect data to enhance your experience and personalize the content and advertising you see.
Visit our Privacy Policy to learn more. By continuing to use the site, you agree to this use of cookies and data.
  • Em Portugal
  • Lista de países
  • Para 7 dias
  • Temperatura da água
  • Mapas de satélite
  • Mapa do tempo
  • Widgets de tempo
  • user-avatar
    Iniciar Sessão

    Previsão horária em Wieruszew

    Hoje, 19 Junho, Quarta-feira

    Tempo Temperatura Precipitação Vento Pressão Humidade
    00:00 +18°C° 0 mm 3 m/s 754 mmHg 84%
    01:00 +18°C° 0 mm 3 m/s 753 mmHg 86%
    02:00 +17°C° 0 mm 3 m/s 753 mmHg 87%
    03:00 +17°C° 0 mm 3 m/s 753 mmHg 89%
    04:00 +17°C° 0 mm 3 m/s 752 mmHg 90%
    05:00 +19°C° 0 mm 3 m/s 752 mmHg 86%
    06:00 +20°C° 0 mm 3 m/s 752 mmHg 82%
    07:00 +22°C° 0 mm 3 m/s 752 mmHg 77%
    08:00 +24°C° 0 mm 3 m/s 752 mmHg 71%
    09:00 +26°C° 0 mm 3 m/s 751 mmHg 66%
    10:00 +27°C° 0 mm 2 m/s 751 mmHg 61%
    11:00 +28°C° 0 mm 2 m/s 751 mmHg 57%
    12:00 +29°C° 0 mm 2 m/s 750 mmHg 53%
    13:00 +29°C° 0 mm 2 m/s 750 mmHg 49%
    14:00 +29°C° 0 mm 2 m/s 750 mmHg 50%
    15:00 +29°C° 0 mm 1 m/s 750 mmHg 51%
    16:00 +29°C° 0 mm 1 m/s 749 mmHg 53%
    17:00 +29°C° 0 mm 1 m/s 749 mmHg 56%
    18:00 +28°C° 0 mm 1 m/s 749 mmHg 60%
    19:00 +25°C° 0 mm 0 m/s 749 mmHg 64%
    20:00 +25°C° 0 mm 1 m/s 749 mmHg 68%
    21:00 +24°C° 0 mm 1 m/s 749 mmHg 72%
    22:00 +21°C° 0 mm 2 m/s 749 mmHg 77%
    23:00 +21°C° 0 mm 2 m/s 749 mmHg 77%

    Amanhã, 20 Junho, Quinta-feira

    Tempo Temperatura Precipitação Vento Pressão Humidade
    00:00 +22°C° 0 mm 1 m/s 749 mmHg 77%
    01:00 +21°C° 0 mm 1 m/s 749 mmHg 76%
    02:00 +21°C° 0 mm 1 m/s 749 mmHg 76%
    03:00 +21°C° 0 mm 1 m/s 749 mmHg 76%
    04:00 +21°C° 0 mm 1 m/s 749 mmHg 76%
    05:00 +22°C° 0 mm 1 m/s 749 mmHg 74%
    06:00 +24°C° 0 mm 2 m/s 749 mmHg 72%
    07:00 +25°C° 0 mm 2 m/s 749 mmHg 70%
    08:00 +26°C° 0 mm 2 m/s 749 mmHg 65%
    09:00 +28°C° 0 mm 2 m/s 749 mmHg 61%
    10:00 +29°C° 0 mm 2 m/s 749 mmHg 56%
    11:00 +30°C° 0 mm 2 m/s 749 mmHg 52%
    12:00 +31°C° 0 mm 2 m/s 749 mmHg 48%
    13:00 +31°C° 0 mm 2 m/s 749 mmHg 44%
    14:00 +31°C° 0 mm 2 m/s 748 mmHg 46%
    15:00 +31°C° 0 mm 2 m/s 748 mmHg 47%
    16:00 +31°C° 0 mm 2 m/s 748 mmHg 48%
    17:00 +29°C° 0.1 mm 3 m/s 748 mmHg 55%
    18:00 +28°C° 0.1 mm 3 m/s 749 mmHg 62%
    19:00 +26°C° 0.1 mm 4 m/s 749 mmHg 69%
    20:00 +24°C° 1 mm 3 m/s 749 mmHg 74%
    21:00 +21°C° 1 mm 2 m/s 750 mmHg 80%
    22:00 +20°C° 1 mm 1 m/s 750 mmHg 85%
    23:00 +19°C° 0.1 mm 2 m/s 750 mmHg 86%

    Depois de amanhã, 21 Junho, Sexta-feira

    Tempo Temperatura Precipitação Vento Pressão Humidade
    00:00 +19°C° 0.1 mm 2 m/s 750 mmHg 87%
    01:00 +19°C° 0.1 mm 2 m/s 750 mmHg 88%
    02:00 +19°C° 0.1 mm 2 m/s 750 mmHg 89%
    03:00 +20°C° 0.1 mm 1 m/s 751 mmHg 89%
    04:00 +20°C° 0.1 mm 1 m/s 751 mmHg 90%
    05:00 +21°C° 0 mm 1 m/s 751 mmHg 87%
    06:00 +21°C° 0 mm 2 m/s 751 mmHg 85%
    07:00 +23°C° 0 mm 2 m/s 752 mmHg 83%
    08:00 +23°C° 0.3 mm 2 m/s 752 mmHg 82%
    09:00 +22°C° 0.3 mm 3 m/s 752 mmHg 81%
    10:00 +22°C° 0.3 mm 3 m/s 752 mmHg 80%
    11:00 +24°C° 0.1 mm 3 m/s 752 mmHg 76%
    12:00 +24°C° 0.1 mm 3 m/s 752 mmHg 72%
    13:00 +25°C° 0.1 mm 3 m/s 752 mmHg 69%
    14:00 +25°C° 0.1 mm 2 m/s 753 mmHg 67%
    15:00 +26°C° 0.1 mm 2 m/s 753 mmHg 64%
    16:00 +26°C° 0.1 mm 2 m/s 753 mmHg 62%
    17:00 +25°C° 0.1 mm 2 m/s 753 mmHg 68%
    18:00 +24°C° 0.1 mm 2 m/s 753 mmHg 75%
    19:00 +23°C° 0.1 mm 2 m/s 753 mmHg 81%
    20:00 +21°C° 0 mm 2 m/s 754 mmHg 84%
    21:00 +20°C° 0 mm 2 m/s 754 mmHg 87%
    22:00 +19°C° 0 mm 2 m/s 755 mmHg 90%
    23:00 +18°C° 0 mm 3 m/s 755 mmHg 91%

    22 Junho, Sábado

    Tempo Temperatura Precipitação Vento Pressão Humidade
    00:00 +18°C° 0 mm 3 m/s 755 mmHg 93%
    01:00 +17°C° 0 mm 4 m/s 755 mmHg 94%
    02:00 +16°C° 0 mm 3 m/s 755 mmHg 93%
    03:00 +16°C° 0 mm 3 m/s 756 mmHg 92%
    04:00 +14°C° 0 mm 3 m/s 756 mmHg 91%
    05:00 +16°C° 0 mm 3 m/s 756 mmHg 87%
    06:00 +17°C° 0 mm 4 m/s 757 mmHg 83%
    07:00 +18°C° 0 mm 4 m/s 757 mmHg 79%
    08:00 +19°C° 0 mm 4 m/s 757 mmHg 73%
    09:00 +21°C° 0 mm 4 m/s 757 mmHg 67%
    10:00 +22°C° 0 mm 4 m/s 757 mmHg 61%
    11:00 +22°C° 0 mm 4 m/s 757 mmHg 59%
    12:00 +23°C° 0 mm 5 m/s 757 mmHg 58%
    13:00 +23°C° 0 mm 5 m/s 757 mmHg 56%
    14:00 +23°C° 0 mm 5 m/s 756 mmHg 59%
    15:00 +23°C° 0 mm 5 m/s 756 mmHg 61%
    16:00 +23°C° 0 mm 6 m/s 756 mmHg 63%
    17:00 +22°C° 0 mm 6 m/s 756 mmHg 68%
    18:00 +21°C° 0 mm 5 m/s 756 mmHg 72%
    19:00 +20°C° 0 mm 5 m/s 757 mmHg 77%
    20:00 +19°C° 0 mm 5 m/s 757 mmHg 77%
    21:00 +16°C° 0 mm 5 m/s 757 mmHg 76%
    22:00 +15°C° 0 mm 5 m/s 757 mmHg 75%
    23:00 +14°C° 0 mm 5 m/s 757 mmHg 77%

    23 Junho, Domingo

    Tempo Temperatura Precipitação Vento Pressão Humidade
    00:00 +14°C° 0 mm 5 m/s 757 mmHg 79%
    01:00 +13°C° 0 mm 5 m/s 757 mmHg 81%
    02:00 +15°C° 0.1 mm 5 m/s 754 mmHg 72%
    03:00 +15°C° 0.1 mm 5 m/s 754 mmHg 73%
    04:00 +14°C° 0.1 mm 5 m/s 754 mmHg 73%
    05:00 +14°C° 0.6 mm 5 m/s 754 mmHg 78%
    06:00 +14°C° 0.6 mm 5 m/s 754 mmHg 83%
    07:00 +14°C° 0.6 mm 5 m/s 754 mmHg 87%
    08:00 +14°C° 1.4 mm 5 m/s 754 mmHg 88%
    09:00 +14°C° 1.4 mm 5 m/s 754 mmHg 89%
    10:00 +15°C° 1.4 mm 6 m/s 754 mmHg 89%
    11:00 +15°C° 3.5 mm 6 m/s 754 mmHg 90%
    12:00 +15°C° 3.5 mm 7 m/s 754 mmHg 91%
    13:00 +15°C° 3.5 mm 7 m/s 754 mmHg 91%
    14:00 +14°C° 1.8 mm 7 m/s 754 mmHg 91%
    15:00 +14°C° 1.8 mm 7 m/s 755 mmHg 90%
    16:00 +14°C° 1.8 mm 7 m/s 755 mmHg 89%
    17:00 +14°C° 0.7 mm 5 m/s 755 mmHg 90%
    18:00 +14°C° 0.7 mm 4 m/s 755 mmHg 91%
    19:00 +14°C° 0.7 mm 3 m/s 756 mmHg 92%
    20:00 +14°C° 0 mm 3 m/s 756 mmHg 90%
    21:00 +13°C° 0 mm 3 m/s 756 mmHg 88%
    22:00 +13°C° 0 mm 3 m/s 757 mmHg 87%
    23:00 +13°C° 0 mm 3 m/s 757 mmHg 87%

    24 Junho, Segunda-feira

    Tempo Temperatura Precipitação Vento Pressão Humidade
    00:00 +12°C° 0 mm 3 m/s 757 mmHg 87%
    01:00 +11°C° 0 mm 3 m/s 757 mmHg 87%
    02:00 +11°C° 0 mm 3 m/s 757 mmHg 87%
    03:00 +10°C° 0 mm 3 m/s 758 mmHg 87%
    04:00 +10°C° 0 mm 3 m/s 758 mmHg 88%
    05:00 +12°C° 0 mm 3 m/s 758 mmHg 83%
    06:00 +13°C° 0 mm 3 m/s 759 mmHg 78%
    07:00 +16°C° 0 mm 3 m/s 759 mmHg 74%
    08:00 +17°C° 0 mm 3 m/s 759 mmHg 67%
    09:00 +19°C° 0 mm 3 m/s 759 mmHg 60%
    10:00 +21°C° 0 mm 3 m/s 760 mmHg 54%
    11:00 +21°C° 0 mm 3 m/s 760 mmHg 51%
    12:00 +22°C° 0 mm 3 m/s 760 mmHg 49%
    13:00 +24°C° 0 mm 3 m/s 760 mmHg 47%
    14:00 +24°C° 0 mm 3 m/s 760 mmHg 48%
    15:00 +24°C° 0 mm 3 m/s 760 mmHg 49%
    16:00 +24°C° 0 mm 3 m/s 759 mmHg 50%
    17:00 +23°C° 0 mm 2 m/s 760 mmHg 57%
    18:00 +21°C° 0 mm 2 m/s 760 mmHg 63%
    19:00 +20°C° 0 mm 2 m/s 760 mmHg 70%
    20:00 +19°C° 0 mm 2 m/s 760 mmHg 71%
    21:00 +17°C° 0 mm 2 m/s 761 mmHg 72%
    22:00 +15°C° 0 mm 2 m/s 761 mmHg 73%
    23:00 +15°C° 0 mm 2 m/s 761 mmHg 75%
    Mostrar mais